Estación de Purranque
Ultimos registro cada 15 minutos 22
| N° | Estación | Fecha / Hora | Temperatura | Humedad | Lluvia | Velocidad | Dirección | Radiación | Presion |
| 22 | Purranque | 06-05-2026 05:15 | 8,9 | 100 | 0,6 | 2,7 | 230 | 0,6 | 996,2 |
| 21 | Purranque | 06-05-2026 05:00 | 8,9 | 100 | 0,6 | 2,3 | 233 | 0,6 | 996,1 |
| 20 | Purranque | 06-05-2026 04:45 | 9 | 100 | 0,8 | 2,3 | 230 | 0,6 | 996 |
| 19 | Purranque | 06-05-2026 04:30 | 9 | 100 | 0,6 | 2 | 218 | 0,6 | 995,8 |
| 18 | Purranque | 06-05-2026 04:15 | 9 | 100 | 0,4 | 2,3 | 202 | 0,6 | 995,8 |
| 17 | Purranque | 06-05-2026 04:00 | 9 | 100 | 0,6 | 1,7 | 232 | 0,6 | 995,8 |
| 16 | Purranque | 06-05-2026 03:45 | 9 | 100 | 0,6 | 1,7 | 219 | 0,6 | 996,1 |
| 15 | Purranque | 06-05-2026 03:30 | 9 | 100 | 0,8 | 1,7 | 225 | 0,6 | 995,9 |
| 14 | Purranque | 06-05-2026 03:15 | 8,9 | 100 | 1 | 1,7 | 216 | 0,6 | 995,8 |
| 13 | Purranque | 06-05-2026 03:00 | 8,9 | 100 | 0,6 | 1,7 | 220 | 0,6 | 996 |
| 12 | Purranque | 06-05-2026 02:45 | 8,9 | 100 | 0,4 | 1,7 | 219 | 0,6 | 996,2 |
| 11 | Purranque | 06-05-2026 02:30 | 8,9 | 100 | 0,6 | 1,3 | 202 | 0,6 | 996 |
| 10 | Purranque | 06-05-2026 02:15 | 8,9 | 100 | 1 | 1,7 | 213 | 0,6 | 996,1 |
| 9 | Purranque | 06-05-2026 02:00 | 8,9 | 100 | 0,6 | 2 | 225 | 0,6 | 996,3 |
| 8 | Purranque | 06-05-2026 01:45 | 8,9 | 100 | 1,2 | 2 | 223 | 0,6 | 996,3 |
| 7 | Purranque | 06-05-2026 01:30 | 9 | 100 | 0,6 | 2,3 | 211 | 0,6 | 996,2 |
| 6 | Purranque | 06-05-2026 01:15 | 9,2 | 99,8 | 0,6 | 2,3 | 211 | 0,6 | 996,2 |
| 5 | Purranque | 06-05-2026 01:00 | 9,3 | 99,7 | 0 | 2,3 | 208 | 0,6 | 996,2 |
| 4 | Purranque | 06-05-2026 00:45 | 9,3 | 99,8 | 0,2 | 2,7 | 219 | 0,6 | 996,2 |
| 3 | Purranque | 06-05-2026 00:30 | 9,4 | 100 | 0,2 | 2,3 | 226 | 0,6 | 996,2 |
| 2 | Purranque | 06-05-2026 00:15 | 9,6 | 100 | 0,2 | 2,3 | 232 | 0,6 | 996 |
| 1 | Purranque | 06-05-2026 00:00 | 9,8 | 100 | 0,2 | 1,7 | 240 | 0,6 | 996,2 |